CDT,Max TemperatureF,Mean TemperatureF,Min TemperatureF,Max Dew PointF,MeanDew PointF,Min DewpointF,Max Humidity, Mean Humidity, Min Humidity, Max Sea Level PressureIn, Mean Sea Level PressureIn, Min Sea Level PressureIn, Max VisibilityMiles, Mean VisibilityMiles, Min VisibilityMiles, Max Wind SpeedMPH, Mean Wind SpeedMPH, Max Gust SpeedMPH,PrecipitationIn, CloudCover, Events, WindDirDegrees
2012-3-1,80,75,69,70,68,64,100,81,62,30.01,29.94,29.82,10,7,1,20,11,24,0.00,7,,203
2012-3-2,79,74,69,70,68,66,93,82,71,29.85,29.78,29.73,10,9,2,21,13,29,0.08,8,Rain,197
2012-3-3,73,59,44,70,47,30,93,67,41,30.13,29.89,29.75,10,10,5,23,12,30,0.22,6,Rain,8
2012-3-4,67,53,38,45,36,30,79,53,26,30.27,30.20,30.14,10,10,10,16,6,30,0.00,0,,256
2012-3-5,77,62,47,52,46,39,93,60,27,30.40,30.34,30.28,10,9,1,12,3,15,0.00,0,,261
2012-3-6,73,60,47,56,50,41,100,66,31,30.36,30.31,30.23,10,5,0,20,5,26,0.00,0,Fog,145
2012-3-7,78,70,62,65,61,57,84,69,54,30.23,30.16,30.12,10,10,10,21,9,30,0.00,5,,143
2012-3-8,79,75,71,70,68,66,93,81,69,30.14,30.10,30.06,10,10,7,22,11,30,0.00,8,,168
2012-3-9,72,61,50,70,59,47,100,86,72,30.33,30.19,30.08,10,7,2,24,11,29,1.08,7,Rain,65
2012-3-10,64,59,54,54,44,38,77,64,51,30.30,30.22,30.17,10,10,10,14,6,18,0.00,6,,69
2012-3-11,77,69,61,67,64,56,97,83,69,30.17,30.11,30.04,10,9,2,22,9,31,0.37,7,Rain-Thunderstorm,140
2012-3-12,77,71,65,70,65,60,97,86,74,30.18,30.12,30.06,10,7,0,17,6,25,2.38,7,Fog-Rain-Thunderstorm,150
2012-3-13,80,74,67,70,67,61,100,81,62,30.22,30.17,30.13,10,7,0,14,5,18,0.00,6,Fog,173
2012-3-14,81,75,68,68,66,63,97,76,54,30.24,30.19,30.14,10,8,4,14,4,20,0.00,5,,176
2012-3-15,80,73,66,68,66,61,93,74,54,30.27,30.21,30.17,10,8,3,16,4,21,0.00,5,,166
2012-3-16,80,72,63,70,65,61,100,77,54,30.22,30.18,30.13,10,4,0,15,4,17,0.00,3,Fog,174
2012-3-17,81,73,64,70,66,62,100,77,54,30.19,30.14,30.09,10,6,0,16,6,22,0.00,5,Fog,147
2012-3-18,82,76,70,70,67,63,97,76,54,30.16,30.11,30.07,10,10,9,17,7,24,0.00,5,,149
2012-3-19,79,74,69,68,66,63,90,76,62,30.06,30.00,29.89,10,10,9,20,8,30,0.00,4,,152
2012-3-20,78,74,70,67,66,64,90,76,62,29.88,29.82,29.77,10,10,10,25,12,39,0.00,6,,148
2012-3-21,75,66,57,70,60,52,93,84,74,30.01,29.86,29.70,10,8,1,28,8,35,1.68,7,Rain-Thunderstorm,196
2012-3-22,75,65,54,60,55,51,100,73,46,30.03,29.98,29.94,10,9,5,9,2,16,0.00,4,,155
2012-3-23,81,67,52,61,54,46,100,65,30,30.05,29.98,29.95,10,7,0,9,3,13,0.00,0,Fog,341
2012-3-24,81,70,58,61,55,51,90,63,36,30.03,29.98,29.94,10,10,10,16,5,21,0.00,0,,346
2012-3-25,82,68,54,62,54,48,93,63,33,30.07,30.01,29.97,10,10,10,10,2,15,0.00,0,,342
2012-3-26,83,72,60,66,59,55,100,70,40,30.10,30.03,29.99,10,10,8,9,2,14,0.00,0,,61
2012-3-27,83,72,61,67,61,55,100,70,40,30.13,30.06,30.02,10,5,0,16,3,22,0.00,0,Fog,170
2012-3-28,81,71,61,65,61,58,100,73,45,30.13,30.07,30.01,10,8,2,16,4,22,0.00,2,,179
2012-3-29,82,73,63,67,63,59,100,74,47,30.01,29.95,29.90,10,8,3,15,5,21,0.00,3,,196
2012-3-30,82,73,64,68,65,62,93,74,54,29.95,29.90,29.84,10,10,7,15,6,21,0.17,4,Rain,182
2012-3-31,84,74,63,68,65,63,100,76,51,29.96,29.91,29.86,10,7,0,14,4,18,0.00,1,Fog,200